Home   Weather   Sweden   Örebro   Past weeks
Flag for Sweden

Past Weather in Örebro, Sweden — Yesterday and Last 2 Weeks

Currently: 52 °F. Partly sunny. (Weather station: Orebro Private, Sweden). See more current weather

Past Weather in Örebro — Graph

°F

Örebro Temperature Yesterday

Maximum temperature yesterday: 54 °F (at 6:20 pm)
Minimum temperature yesterday: 41 °F (at 1:50 am)
Average temperature yesterday: 46 °F

High & Low Weather Summary for the Past Weeks

 TemperatureHumidityPressure
High64 °F (Apr 9, 2:20 pm)100% (Mar 29, 12:50 am)30.09 "Hg (Mar 29, 12:50 am)
Low23 °F (Apr 4, 4:50 am)35% (Apr 3, 4:20 pm)29.12 "Hg (Mar 28, 8:20 pm)
Average42 °F81%29.71 "Hg
* Reported Mar 28 5:20 pm — Apr 12 6:50 pm, Örebro. Weather by CustomWeather, © 2024

Note: Actual official high and low records may vary slightly from our data, if they occured in-between our weather recording intervals... More about our weather records

Örebro Weather History for the Previous 24 Hours

Scroll right to see more
 ConditionsComfort  
Time TempWeatherWind HumidityBarometerVisibility
6:50 pm
Fri, Apr 12
52 °FPartly sunny.8 mph88%29.92 "HgN/A
6:20 pm52 °FScattered clouds.10 mph88%29.92 "HgN/A
5:50 pm52 °FScattered clouds.12 mph88%29.92 "HgN/A
5:20 pm54 °FScattered clouds.10 mph82%29.95 "HgN/A
4:50 pm54 °FScattered clouds.14 mph82%29.95 "HgN/A
4:20 pm52 °FPartly sunny.12 mph88%29.98 "HgN/A
3:50 pm52 °FPartly sunny.12 mph88%29.98 "HgN/A
3:20 pm52 °FLight rain. Partly sunny.12 mph94%30.01 "HgN/A
2:50 pm52 °FLight rain. Partly sunny.10 mph88%30.01 "HgN/A
2:20 pm52 °FLight rain. Partly sunny.12 mph82%30.04 "HgN/A
1:50 pm52 °FPartly sunny.12 mph82%30.04 "HgN/A
12:50 pm52 °FPartly sunny.13 mph82%30.04 "HgN/A
12:20 pm50 °FPartly sunny.13 mph82%30.07 "HgN/A
11:50 am50 °FBroken clouds.10 mph82%30.07 "HgN/A
11:20 am50 °FPartly sunny.13 mph76%30.07 "HgN/A
10:50 am48 °FPartly sunny.7 mph76%30.07 "HgN/A
10:20 am48 °FSunny.13 mph76%30.07 "Hg10 mi
9:20 am46 °FSunny.13 mph82%30.07 "Hg10 mi
8:50 am46 °FPassing clouds.14 mph82%30.07 "HgN/A
8:20 am45 °FPassing clouds.12 mph87%30.07 "HgN/A
7:50 am45 °FPassing clouds.9 mph81%30.07 "HgN/A
7:20 am45 °FPassing clouds.12 mph81%30.07 "HgN/A
6:50 am43 °FPassing clouds.8 mph87%30.09 "HgN/A
6:20 am41 °FPassing clouds.7 mph93%30.07 "HgN/A
5:50 am43 °FPassing clouds.10 mph87%30.07 "HgN/A
5:20 am43 °FQuite cool.10 mph87%30.07 "HgN/A
4:50 am43 °FQuite cool.12 mph87%30.09 "HgN/A
4:20 am43 °FQuite cool.10 mph87%30.09 "HgN/A
3:20 am45 °FQuite cool.13 mph87%30.07 "HgN/A
2:50 am45 °FQuite cool.9 mph87%30.07 "HgN/A
1:50 am46 °FClear.13 mph87%30.04 "Hg10 mi
1:20 am46 °FPassing clouds.14 mph87%30.04 "HgN/A
12:50 am46 °FPassing clouds.14 mph87%30.01 "HgN/A
12:20 am48 °FClear.18 mph82%30.01 "Hg10 mi
11:50 pm
Thu, Apr 11
48 °FPassing clouds.20 mph87%29.98 "HgN/A
11:20 pm48 °FClear.20 mph87%29.98 "Hg10 mi
10:50 pm50 °FPassing clouds.17 mph82%29.98 "HgN/A
10:20 pm50 °FClear.15 mph88%29.98 "Hg10 mi
9:50 pm50 °FClear.20 mph88%29.95 "Hg10 mi
9:20 pm52 °FPassing clouds.16 mph82%29.95 "HgN/A
8:50 pm52 °FPassing clouds.16 mph82%29.92 "HgN/A
8:20 pm52 °FPassing clouds.17 mph82%29.92 "HgN/A
Weather by CustomWeather, © 2024

See weather overview